Regional Weather Roundup
Issued by NWS

Home | Current Version | Previous Version | Graphics & Text | Print | Product List | Glossary On
Versions: 1 2 3 4 5 6 7 8 9 10 11 12 13 14 15 16 17 18 19 20 21 22 23 24 25 26 27 28 29 30 31 32 33 34 35 36 37 38 39 40 41 42 43 44 45 46 47 48 49 50
000
ASUS43 KMKX 212100
RWRWI

WISCONSIN REGIONAL WEATHER ROUNDUP
NATIONAL WEATHER SERVICE MILWAUKEE/SULLIVAN WI
400 PM CDT SUN SEP 21 2014

NOTE: "FAIR" INDICATES FEW OR NO CLOUDS BELOW 12,000 FEET WITH NO
SIGNIFICANT WEATHER AND/OR OBSTRUCTIONS TO VISIBILITY.

WIZ001-002-006>008-014>016-023>028-212200-
NORTHWEST WISCONSIN

CITY           SKY/WX    TMP DP  RH WIND       PRES   REMARKS
SUPERIOR ARPT  SUNNY     64  43  46 N5        30.11S
ASHLAND        SUNNY     58  42  55 SE3       30.13S
HAYWARD        SUNNY     60  41  49 N13G20    30.12R
SIREN          SUNNY     64  42  46 N9        30.13R
RICE LAKE      PTSUNNY   63  44  49 N13G18    30.13R
LADYSMITH      SUNNY     60  43  54 N14G23    30.12R
EAU CLAIRE     NOT AVBL
MENOMONIE      PTCLDY    65  43  44 NW15G22   30.11R
NEW RICHMOND   MOSUNNY   64  44  47 NW12      30.14R
OSCEOLA        MOSUNNY   63  45  51 N9G21     30.16S
$$

WIZ003>005-009-010-017-018-212200-
NORTH CENTRAL WISCONSIN

CITY           SKY/WX    TMP DP  RH WIND       PRES   REMARKS
WOODRUFF       MOSUNNY   52  40  64 NW14G23   30.09R
RHINELANDER    MOSUNNY   52  39  61 NW12G21   30.08R
EAGLE RIVER    MOSUNNY   51  37  57 N14       30.07R
LAND O LAKES   PTSUNNY   51  38  62 NW12G18   30.09R
PHILLIPS       MOSUNNY   54  41  62 N9        30.10R
TOMAHAWK       MOSUNNY   54  40  58 NW13      30.08R
MEDFORD        PTSUNNY   55  43  64 NW15      30.08R
MERRILL        MOSUNNY   58  42  56 N15       30.05S
$$

WIZ029-030-035-036-043>047-212200-
CENTRAL WISCONSIN

CITY           SKY/WX    TMP DP  RH WIND       PRES   REMARKS
WAUSAU         SUNNY     57  40  52 NW13G22   30.04R
MOSINEE        NOT AVBL
MARSHFIELD     MOSUNNY   62  44  51 N17G26    30.06R
STEVENS POINT  MOSUNNY   57  41  53 NW8G20    30.04S
WAUPACA        SUNNY     62  42  48 NW12G21   30.03R
WAUTOMA        NOT AVBL
WISC RAPIDS    SUNNY     62  43  49 NW14G22   30.06R
CAMP DOUGLAS   NOT AVBL
$$

WIZ011>013-019>022-031-037>040-048>050-212200-
NORTHEAST WISCONSIN

CITY           SKY/WX    TMP DP  RH WIND       PRES   REMARKS
ANTIGO         SUNNY     54  41  62 N17G23    30.05R
STURGEON BAY   PTSUNNY   55  41  58 N16G22    29.99R
GREEN BAY      PTSUNNY   58  44  60 NW13      30.01R
MANITOWOC      CLOUDY    57  46  67 NW13G22   29.99R
APPLETON       MOSUNNY   57  39  51 NW13G24   30.02R
CLINTONVILLE   SUNNY     59  37  44 N13       30.03R
OSHKOSH        SUNNY     58  43  57 NW10G21   30.01R
$$

WIZ032>034-041-042-053>061-212200-
SOUTHWEST WISCONSIN

CITY           SKY/WX    TMP DP  RH WIND       PRES   REMARKS
LA CROSSE      PTSUNNY   68  46  45 NW16      30.07R
SPARTA         MOSUNNY   65  42  42 NW10G18   30.07R
VIROQUA        FAIR      64  45  49 N15       30.07R
BOSCOBEL       PTSUNNY   67  46  47 N8G22     30.06R
PRAIRIE DU CHI PTSUNNY   66  45  45 NW12G22   30.06S
PLATTEVILLE    PTSUNNY   66  48  52 NW15G22   30.05R
$$

WIZ056-057-062-063-064-067-068-212200-
SOUTH CENTRAL WISCONSIN

CITY           SKY/WX    TMP DP  RH WIND       PRES   REMARKS
BARABOO/DELLS  PTSUNNY   64  41  43 N9G21     30.03S
LONE ROCK      NOT AVBL
WATERTOWN      PTSUNNY   62  45  52 NW20G25   30.00R
MADISON        PTSUNNY   65  44  46 N14G24    30.02R
MIDDLETON      MOCLDY    66  43  44 NW13G20   30.03R
MONROE         NOT AVBL
JANESVILLE     MOSUNNY   66  45  45 N17G29    30.00R
$$

WIZ051-052-058>065-066-070>072-212200-
SOUTHEAST WISCONSIN

CITY           SKY/WX    TMP DP  RH WIND       PRES   REMARKS
MILWAUKEE      PTSUNNY   61  45  55 N17G24    29.98R
WAUKESHA       PTSUNNY   57  45  62 NW16G24   30.00R
MILWAUKEE/TIMM CLOUDY    59  43  55 N16G25    30.00R
RACINE         PTSUNNY   59  51  75 N16G23    29.99R
BURLINGTON     MOSUNNY   63  48  57 N15G21    29.97S
KENOSHA        PTSUNNY   61  51  70 N10       29.98R
FOND DU LAC    MOSUNNY   58  42  55 N13G23    30.02R
SHEBOYGAN      CLOUDY    56  45  66 NW16G22   30.00R
WEST BEND      CLOUDY    55  41  58 NW15      30.00R
JUNEAU         CLOUDY    59  44  57 NW14G21   30.02R
$$

LSZ147-162-212200-
LAKE SUPERIOR

STATION/POSITION TIME  TEMP    WIND        PRES    WAVE
                       AIR SEA DIR/SP/G            HT/PER
                 (UTC) (F)     (DEG/KT/KT) (MB)    (FT/S)
W MID LAKE BUOY  1950   47 46  220/  6/  8 1019.3F   2/ 5
DEVILS ISLAND    2000   52     210/  5/  7 1019.8F
PORT WING        2000   55     350/  2/  3 1020.0S
SAXON HARBOR     2000   52      50/  1/  6 1020.7
$$

LMZ867-665-643>646-212200-
LAKE MICHIGAN

STATION/POSITION TIME  TEMP    WIND        PRES    WAVE
                       AIR SEA DIR/SP/G            HT/PER
                 (UTC) (F)     (DEG/KT/KT) (MB)    (FT/S)
N MID LAKE BUOY  1950   49 58  330/ 27/ 33 1013.1R   7/ 6
NORTHPORT PIER   2008   50     330/ 25/ 25 1014.9R
KEWAUNEE LAKESHO 2000   56     350/  8/ 13 1013.9R
SHEBOYGAN LAKESH 2000   57 51  340/ 17/ 20 1015.2R
PORT WASHINGTON  2000   61     320/ 11/ 18 1015.6R
ATWATER BUOY     2000   57     360/ 14/ 17 1015.4R
MILWAUKEE LAKESH 2000   59     350/ 17/ 20   N/A
S MID LAKE BUOY  1950   58 62  330/ 23/ 29 1013.2R   9/ 7
KENOSHA   LAKESH 2000   57      20/ 17/ 21 1014.2R
$$

TC  - TEMPERATURE IN CELSIUS
VSB - VISIBILITY IN STATUTE MILES
WCI - WIND CHILL INDEX
HX  - HEAT INDEX



USA.gov is the U.S. government's official web portal to all federal, state and local government web resources and services.